Погода в Морозовске

Хотите узнать прогноз погоды в Морозовске? Тогда Вам сюда: Погода в Морозовске

Поиск расширенной информации на нашем сайте:

Полезная информация:

Новости сайта



02.01.2020
Опубликован Долгосрочный прогноз погоды по городам России и ближнего зарубежья на январь 2020 года.
Карты: Прогноз на январь и февраль 2020 года, Сравнение прогнозируемой аномалии приземной температуры воздуха на январь 2020 года по разным моделям.




Погода в Морозовске - сегодня

Время (UTC), дата Ветер
(°,м/с) 
Видим.   Явления Облачность Т
(°С)
Тd
(°С)
f(%) Тe
(°С)
Pmin
(гПа)
dP
(гПа)
Po
(мм)
O2
(г/м3)
Тmin Tmax R s Состояние
почвы
15 18.10.20 310 (СЗ) 20000 м    8/0 средняя, верхняя 
[Ac As|Ci fib]
+21.8 +6.2 36 +22  1007.4  -1.2  748  278    +27       
18 18.10.20 260 (З) 20000 м    ясно 
+14.8 +9.8 72 +16  1014.4  1.2  753  286           
21 18.10.20 290 (З) 20000 м    10/0 средняя 
[Ac und]
+13.6 +7.3 66 +15  1015.7  1.2  754  288           
00 19.10.20 320 (СЗ) 20000 м    10/3 600 м кучево-дожд., средняя 
[Cb calv|Ac und]
+13.1 +5.6 60 +14  1016.8  1.1  755  289           
03 19.10.20 350 (С) 20000 м    10/0 средняя 
[Ac und]
+11.7 +5.5 66 +13  1018.1  1.2  755  291  +11.7        сухая 
06 19.10.20 340 (С) 20000 м    8/0 средняя, верхняя 
[Ac trans|Ci fib]
+10.2 +4.9 70 +10  1019.3  1.2  756  293  +9.6         
09 19.10.20 340 (С) 20000 м    6/0 верхняя 
[Ci fib]
+15.5 +2.7 42 +16  1019.6  0.4  757  288           
12 19.10.20 350 (С) 20000 м    9/0 средняя, верхняя 
[Ac trans|Cc]
+16.2 +1.4 37 +17  1017.6  -1.9  755  287           
15 19.10.20 310 (СЗ) 20000 м    10/0 кучево-дожд., средняя 
[Cb calv|As op]
+13.6 +0.1 40 +15  1017.8  0.1  755  290    +16.9       
18 19.10.20 190 (Ю) 20000 м  слаб. ливневой дождь  10/10 600 м кучево-дожд. 
[Cb calv]
+10.7 +5.9 72 +12  1018  0.1  755  292           
21 19.10.20 300 (СЗ) 20000 м  {ливн. осадки}  ясно 
+7.8 +4.7 81 +9  1019.8  1.6  757  296           
00 20.10.20 240 (ЮЗ) 20000 м  {ливн. осадки}  ясно 
+4.1 +1.5 83 +4  1021.6  1.7  758  301           
03 20.10.20 270 (З) 20000 м    ясно 
+2 -0 87 +1  1022.1  0.4  758  303  +2      влажная 
06 20.10.20 270 (З) 20000 м    ясно 
+6.5 +3.2 79 +6  1023.2  1.3  759  298  +1.5         
09 20.10.20 270 (З) 20000 м    8/8 600 м 
[Cu med, cong]
+11.5 +3.7 59 +11  1023.5  0.4  759  293           
12 20.10.20 270 (З) 20000 м    4/4 600 м 
[Cu hum]
+12.5 -3.4 33 +12  1022.6  -0.8  759  293           
15 20.10.20 250 (З) 20000 м    ясно 
+7.5 -5.2 40 +7  1022.9  0.1  759  298    +13       
18 20.10.20 230 (ЮЗ) 20000 м    ясно 
+4 -4 56 +4  1023.5  0.5  759  302           
21 20.10.20 250 (З) 20000 м    4/0 средняя 
[Ac trans]
+4.1 -2.8 61 +3  1024.5  0.9  760  302           
00 21.10.20 260 (З) 20000 м    ясно 
+0.8 -3.4 73 1025.3  0.7  760  306           
03 21.10.20 260 (З) 20000 м    ясно 
-1 -3.7 82 -3  1026.7  1.3  761  308  -1        сухая 
06 21.10.20 270 (З) 20000 м    3/0 верхняя 
[Ci fib]
+4.1 -1.1 69 +2  1027.6  1.1  762  303  -1.5         
09 21.10.20 280 (З) 20000 м    5/3 600 м верхняя 
[Cu hum|Ci fib]
+10.3 -2.7 40 +9  1026.6  -0.8  762  296           
12 21.10.20 280 (З) 20000 м    6/0 верхняя 
[Ci fib]
+11 -4.5 33 +10  1025.5  -1  761  295           
15 21.10.20 250 (З) 20000 м    10/0 средняя 
[Ac und]
+8.1 -3.6 43 +8  1025  -0.6  760  298    +11.3       
Время (UTC), дата Ветер
(°,м/с) 
Видим.   Явления Облачность Т
(°С)
Тd
(°С)
f(%) Тe
(°С)
Pmin
(гПа)
dP
(гПа)
Po
(мм)
O2
(г/м3)
Тmin Tmax R s Состояние
почвы

Для получения пояснительной информации подведите курсор к названию столбца.

ПОГОДА в Морозовске - архив

Всё, что Вы хотите узнать о погоде в Морозовске - удобно и подробно!

Выберите нужную дату (начиная с 1 января 2019* года) и нажмите кнопку "Найти".
Будут отображены архивные сводки погоды по пункту Морозовск, начиная с указанной даты.


Отображать данные в формате CSV (для использования в таблицах Excel)


Внимание! Наш архив погоды предназначен исключительно для личного некоммерческого использования в познавательных целях. Если Вам необходимы официальные справки о состоянии погоды (для производственных, юридических, коммерческих и т.п. целей), обращайтесь в органы Росгидромета.

*Примечание: данная дата относится к архиву по метеостанциям СССР (Россия, СНГ, Балтия).
Архив по метеостанциям Зарубежной Европы и Азии (кроме Китая) хранится 10 дней, по другим регионам земного шара (Китай, Африка, Америка, Австралия, Океания) - 1 день.

Морозовск - район местоположения метеостанции


Название, широта, долгота, высота метеостанции:
Морозовск 48.3°ш. 41.9°д. 90 м над ур. моря [Российская Федерация]

Дополнительная информация

В oтличие oт бoльшинства пoгoдных сайтoв мы публикуем пoдрoбную метеoинфoрмацию в детальнoм прoфессиoнальнoм фoрмате.

Характеристики температуры и влажнoсти вoздуха измеряются на высoте 2 м в тени вдали oт зданий и деревьев.
Скoрoсть ветра измеряется на высoте 10 м (на урoвне рoста челoвека скoрoсть ветра ниже в 1.5-2 раза). Если метеoстанция нахoдится в гoрoде или в лесу, тo скoрoсть ветра занижена на 2-4 м/с пo сравнению с oткрытым местoм. Скoрoсть ветра над акватoриями крупных рек и oзёр, а также на вершинах хoлмoв на 2-5 м/с выше, чем в oбычных услoвиях.
Атмoсфернoе давление в разных тoчках местнoсти мoжет значительнo oтличаться oт давления на метеoстанции, в зависимoсти oт услoвий рельефа (при пoдъёме на 10 м давление пoнижается примернo на 1 мм рт.ст.).